Time,TemperatureF,DewpointF,PressureIn,WindDirection,WindDirectionDegrees,WindSpeedMPH,WindSpeedGustMPH,Humidity,HourlyPrecipIn,Conditions,Clouds,dailyrainin,SolarRadiationWatts/m^2,SoftwareType,DateUTC
2013-06-18 00:00:00,70.3,68.8,29.85,WNW,292,0.0,0.0,95,0.00,,---,0.45,0.00,VWS V14.01,2013-06-18 04:00:00,
2013-06-18 00:01:00,70.3,68.8,29.85,WNW,292,0.0,0.0,95,0.00,,---,0.45,0.00,VWS V14.01,2013-06-18 04:01:00,
2013-06-18 00:02:00,70.3,68.8,29.85,WNW,292,0.0,0.0,95,0.00,,---,0.45,0.00,VWS V14.01,2013-06-18 04:02:00,
2013-06-18 00:03:00,70.3,68.8,29.85,WNW,292,0.0,0.0,95,0.00,,---,0.45,0.00,VWS V14.01,2013-06-18 04:03:00,
2013-06-18 00:06:00,70.3,68.8,29.84,WNW,292,0.0,0.0,95,0.00,,---,0.45,0.00,VWS V14.01,2013-06-18 04:06:00,
2013-06-18 00:11:00,70.2,68.7,29.84,WNW,292,0.0,0.0,95,0.00,,---,0.00,0.00,VWS V14.01,2013-06-18 04:11:00,
2013-06-18 00:16:00,70.2,68.7,29.84,WNW,292,0.0,0.0,95,0.00,,---,0.00,0.00,VWS V14.01,2013-06-18 04:16:00,
2013-06-18 00:21:00,70.2,69.0,29.84,WNW,292,0.0,0.0,96,0.00,,---,0.00,0.00,VWS V14.01,2013-06-18 04:21:00,
2013-06-18 00:26:00,70.2,68.7,29.84,WNW,292,0.0,0.0,95,0.00,,---,0.00,0.00,VWS V14.01,2013-06-18 04:26:00,
2013-06-18 00:31:00,70.1,68.6,29.84,WNW,292,0.0,0.0,95,0.00,,---,0.00,0.00,VWS V14.01,2013-06-18 04:31:00,
2013-06-18 00:36:00,70.1,68.6,29.84,WNW,292,0.0,0.0,95,0.00,,---,0.00,0.00,VWS V14.01,2013-06-18 04:36:00,
2013-06-18 00:41:00,70.1,68.9,29.83,WNW,292,0.0,0.0,96,0.00,,---,0.00,0.00,VWS V14.01,2013-06-18 04:41:00,
2013-06-18 00:47:00,70.1,68.9,29.83,WNW,292,0.0,0.0,96,0.00,,---,0.00,0.00,VWS V14.01,2013-06-18 04:47:00,
2013-06-18 00:52:00,70.1,68.9,29.83,WNW,292,0.0,0.0,96,0.00,,---,0.00,0.00,VWS V14.01,2013-06-18 04:52:00,
2013-06-18 00:57:00,70.1,68.9,29.83,WNW,292,0.0,0.0,96,0.00,,---,0.00,0.00,VWS V14.01,2013-06-18 04:57:00,
2013-06-18 01:02:00,70.0,68.8,29.83,WNW,292,0.0,0.0,96,0.00,,---,0.00,0.00,VWS V14.01,2013-06-18 05:02:00,
2013-06-18 01:07:00,70.0,68.8,29.82,WNW,292,0.0,0.0,96,0.00,,---,0.00,0.00,VWS V14.01,2013-06-18 05:07:00,
2013-06-18 01:12:00,70.0,68.5,29.81,WNW,292,0.0,0.0,95,0.00,,---,0.00,0.00,VWS V14.01,2013-06-18 05:12:00,
2013-06-18 01:17:00,69.9,68.4,29.81,WNW,292,0.0,0.0,95,0.00,,---,0.00,0.00,VWS V14.01,2013-06-18 05:17:00,
2013-06-18 01:22:00,69.9,68.4,29.81,WNW,292,0.0,0.0,95,0.00,,---,0.00,0.00,VWS V14.01,2013-06-18 05:22:00,
2013-06-18 01:27:00,69.8,68.3,29.80,WNW,292,0.0,0.0,95,0.00,,---,0.00,0.00,VWS V14.01,2013-06-18 05:27:00,
2013-06-18 01:32:00,69.9,68.4,29.79,WNW,292,0.0,0.0,95,0.00,,---,0.00,0.00,VWS V14.01,2013-06-18 05:32:00,
2013-06-18 01:38:00,69.8,68.3,29.80,WNW,292,0.0,0.0,95,0.00,,---,0.00,0.00,VWS V14.01,2013-06-18 05:38:00,
2013-06-18 01:43:00,69.8,68.3,29.80,WNW,292,0.0,0.0,95,0.00,,---,0.00,0.00,VWS V14.01,2013-06-18 05:43:00,
2013-06-18 01:48:00,69.7,68.2,29.80,WNW,292,0.0,0.0,95,0.00,,---,0.00,0.00,VWS V14.01,2013-06-18 05:48:00,
2013-06-18 01:53:00,69.7,68.2,29.80,WNW,292,0.0,0.0,95,0.00,,---,0.00,0.00,VWS V14.01,2013-06-18 05:53:00,
2013-06-18 01:58:00,69.6,68.1,29.80,WNW,292,0.0,0.0,95,0.00,,---,0.00,0.00,VWS V14.01,2013-06-18 05:58:00,
2013-06-18 02:03:00,69.6,68.1,29.79,WNW,292,0.0,0.0,95,0.00,,---,0.00,0.00,VWS V14.01,2013-06-18 06:03:00,
2013-06-18 02:08:00,69.6,68.1,29.79,WNW,292,0.0,0.0,95,0.00,,---,0.00,0.00,VWS V14.01,2013-06-18 06:08:00,
2013-06-18 02:13:00,69.6,68.4,29.79,WNW,292,0.0,0.0,96,0.00,,---,0.00,0.00,VWS V14.01,2013-06-18 06:13:00,
2013-06-18 02:18:00,69.6,68.4,29.78,WNW,292,0.0,0.0,96,0.00,,---,0.00,0.00,VWS V14.01,2013-06-18 06:18:00,
2013-06-18 02:23:00,69.6,68.4,29.78,WNW,292,0.0,0.0,96,0.00,,---,0.00,0.00,VWS V14.01,2013-06-18 06:23:00,
2013-06-18 02:29:00,69.6,68.4,29.78,WNW,292,0.0,0.0,96,0.00,,---,0.00,0.00,VWS V14.01,2013-06-18 06:29:00,
2013-06-18 02:34:00,69.6,68.4,29.78,WNW,292,0.0,0.0,96,0.00,,---,0.00,0.00,VWS V14.01,2013-06-18 06:34:00,
2013-06-18 02:39:00,69.6,68.4,29.78,WNW,292,0.0,0.0,96,0.00,,---,0.00,0.00,VWS V14.01,2013-06-18 06:39:00,
2013-06-18 02:44:00,69.5,68.3,29.77,WNW,292,0.0,0.0,96,0.00,,---,0.00,0.00,VWS V14.01,2013-06-18 06:44:00,
2013-06-18 02:49:00,69.6,68.4,29.77,WNW,292,0.0,0.0,96,0.00,,---,0.00,0.00,VWS V14.01,2013-06-18 06:49:00,
2013-06-18 02:54:00,69.5,68.3,29.77,WNW,292,0.0,0.0,96,0.00,,---,0.00,0.00,VWS V14.01,2013-06-18 06:54:00,
2013-06-18 02:59:00,69.5,68.3,29.77,WNW,292,0.0,0.0,96,0.00,,---,0.00,0.00,VWS V14.01,2013-06-18 06:59:00,
2013-06-18 03:04:00,69.5,68.0,29.77,WNW,292,0.0,0.0,95,0.00,,---,0.00,0.00,VWS V14.01,2013-06-18 07:04:00,
2013-06-18 03:09:00,69.4,67.9,29.77,WNW,292,0.0,0.0,95,0.00,,---,0.00,0.00,VWS V14.01,2013-06-18 07:09:00,
2013-06-18 03:14:00,69.3,67.8,29.77,WNW,292,0.0,0.0,95,0.00,,---,0.00,0.00,VWS V14.01,2013-06-18 07:14:00,
2013-06-18 03:19:00,69.3,67.8,29.77,WSW,254,0.0,1.0,95,0.00,,---,0.00,0.00,VWS V14.01,2013-06-18 07:19:00,
2013-06-18 03:25:00,69.4,67.9,29.77,WNW,297,0.0,4.0,95,0.00,,---,0.00,0.00,VWS V14.01,2013-06-18 07:25:00,
2013-06-18 03:30:00,69.4,67.9,29.77,WNW,297,0.0,1.0,95,0.00,,---,0.00,0.00,VWS V14.01,2013-06-18 07:30:00,
2013-06-18 03:35:00,69.4,67.9,29.77,West,267,0.0,3.0,95,0.00,,---,0.00,0.00,VWS V14.01,2013-06-18 07:35:00,
2013-06-18 03:40:00,69.3,67.8,29.77,WSW,254,0.0,1.0,95,0.00,,---,0.00,0.00,VWS V14.01,2013-06-18 07:40:00,
2013-06-18 03:45:00,69.3,67.8,29.77,WSW,254,0.0,1.0,95,0.00,,---,0.00,0.00,VWS V14.01,2013-06-18 07:45:00,
2013-06-18 03:50:00,69.2,67.7,29.77,WSW,254,0.0,0.0,95,0.00,,---,0.00,0.00,VWS V14.01,2013-06-18 07:50:00,
2013-06-18 03:55:00,69.2,67.7,29.77,WSW,254,0.0,0.0,95,0.00,,---,0.00,0.00,VWS V14.01,2013-06-18 07:55:00,
2013-06-18 04:00:00,69.2,67.7,29.77,WSW,254,0.0,0.0,95,0.00,,---,0.00,0.00,VWS V14.01,2013-06-18 08:00:00,
2013-06-18 04:05:00,69.2,67.7,29.77,WSW,254,0.0,0.0,95,0.00,,---,0.00,0.00,VWS V14.01,2013-06-18 08:05:00,
2013-06-18 04:10:00,69.2,67.7,29.78,WSW,254,0.0,0.0,95,0.00,,---,0.00,0.00,VWS V14.01,2013-06-18 08:10:00,
2013-06-18 04:16:00,69.2,67.7,29.77,WSW,254,0.0,0.0,95,0.00,,---,0.00,0.00,VWS V14.01,2013-06-18 08:16:00,
2013-06-18 04:21:00,69.2,67.7,29.77,WSW,254,0.0,0.0,95,0.00,,---,0.00,0.00,VWS V14.01,2013-06-18 08:21:00,
2013-06-18 04:26:00,69.2,67.7,29.77,WSW,254,0.0,0.0,95,0.00,,---,0.00,0.00,VWS V14.01,2013-06-18 08:26:00,
2013-06-18 04:31:00,69.1,67.6,29.77,WSW,254,0.0,0.0,95,0.00,,---,0.00,0.00,VWS V14.01,2013-06-18 08:31:00,
2013-06-18 04:36:00,69.2,67.7,29.77,WSW,254,0.0,0.0,95,0.00,,---,0.00,0.00,VWS V14.01,2013-06-18 08:36:00,
2013-06-18 04:41:00,69.2,68.0,29.77,WSW,254,0.0,0.0,96,0.00,,---,0.00,0.00,VWS V14.01,2013-06-18 08:41:00,
2013-06-18 04:46:00,69.2,68.0,29.77,WSW,254,0.0,0.0,96,0.00,,---,0.00,0.00,VWS V14.01,2013-06-18 08:46:00,
2013-06-18 04:51:00,69.2,68.0,29.77,WSW,254,0.0,0.0,96,0.00,,---,0.00,0.00,VWS V14.01,2013-06-18 08:51:00,
2013-06-18 04:56:00,69.1,67.9,29.77,WSW,254,0.0,0.0,96,0.00,,---,0.00,0.00,VWS V14.01,2013-06-18 08:56:00,
2013-06-18 05:01:00,69.1,67.9,29.78,WSW,254,0.0,0.0,96,0.00,,---,0.00,0.00,VWS V14.01,2013-06-18 09:01:00,
2013-06-18 05:07:00,69.0,67.8,29.78,WSW,254,0.0,0.0,96,0.00,,---,0.00,0.00,VWS V14.01,2013-06-18 09:07:00,
2013-06-18 05:12:00,69.0,67.8,29.77,WSW,254,0.0,0.0,96,0.00,,---,0.00,0.00,VWS V14.01,2013-06-18 09:12:00,
2013-06-18 05:17:00,69.0,67.8,29.78,WSW,254,0.0,1.0,96,0.00,,---,0.00,0.00,VWS V14.01,2013-06-18 09:17:00,
2013-06-18 05:22:00,69.0,67.5,29.78,WSW,252,0.0,1.0,95,0.00,,---,0.00,0.00,VWS V14.01,2013-06-18 09:22:00,
2013-06-18 05:27:00,69.1,67.6,29.78,WSW,254,0.0,3.0,95,0.00,,---,0.00,0.00,VWS V14.01,2013-06-18 09:27:00,
2013-06-18 05:32:00,69.1,67.6,29.78,WSW,258,0.0,4.0,95,0.00,,---,0.00,0.00,VWS V14.01,2013-06-18 09:32:00,
2013-06-18 05:37:00,69.1,67.6,29.78,WSW,258,0.0,4.0,95,0.00,,---,0.00,0.00,VWS V14.01,2013-06-18 09:37:00,
2013-06-18 05:42:00,69.2,67.7,29.78,WSW,258,1.0,3.0,95,0.00,,---,0.00,0.00,VWS V14.01,2013-06-18 09:42:00,
2013-06-18 05:47:00,69.2,67.7,29.78,WSW,258,0.0,3.0,95,0.00,,---,0.00,0.00,VWS V14.01,2013-06-18 09:47:00,
2013-06-18 05:53:00,69.2,67.7,29.79,WSW,258,0.0,3.0,95,0.00,,---,0.00,0.00,VWS V14.01,2013-06-18 09:53:00,
2013-06-18 05:58:00,69.1,67.3,29.79,WSW,257,0.0,4.0,94,0.00,,---,0.00,0.00,VWS V14.01,2013-06-18 09:58:00,
2013-06-18 06:03:00,69.0,67.2,29.79,SW,234,0.0,5.0,94,0.01,,---,0.01,0.00,VWS V14.01,2013-06-18 10:03:00,
2013-06-18 06:08:00,68.8,67.0,29.79,WSW,244,2.0,6.0,94,0.02,,---,0.02,0.00,VWS V14.01,2013-06-18 10:08:00,
2013-06-18 06:13:00,68.7,66.9,29.79,WSW,244,0.0,3.0,94,0.02,,---,0.02,0.00,VWS V14.01,2013-06-18 10:13:00,
2013-06-18 06:18:00,68.6,67.1,29.79,WSW,244,1.0,3.0,95,0.02,,---,0.02,0.00,VWS V14.01,2013-06-18 10:18:00,
2013-06-18 06:23:00,68.5,67.0,29.79,WSW,244,0.0,0.0,95,0.02,,---,0.02,0.00,VWS V14.01,2013-06-18 10:23:00,
2013-06-18 06:28:00,68.5,67.0,29.80,WSW,244,0.0,2.0,95,0.02,,---,0.02,0.00,VWS V14.01,2013-06-18 10:28:00,
2013-06-18 06:33:00,68.4,67.2,29.80,WSW,244,0.0,0.0,96,0.02,,---,0.02,0.00,VWS V14.01,2013-06-18 10:33:00,
2013-06-18 06:38:00,68.4,67.2,29.79,WSW,244,0.0,0.0,96,0.02,,---,0.02,5.00,VWS V14.01,2013-06-18 10:38:00,
2013-06-18 06:44:00,68.4,67.2,29.79,WSW,244,0.0,0.0,96,0.02,,---,0.02,5.00,VWS V14.01,2013-06-18 10:44:00,
2013-06-18 06:49:00,68.4,67.2,29.79,WSW,244,0.0,0.0,96,0.02,,---,0.02,9.00,VWS V14.01,2013-06-18 10:49:00,
2013-06-18 06:54:00,68.3,67.1,29.79,WSW,244,0.0,0.0,96,0.02,,---,0.02,14.00,VWS V14.01,2013-06-18 10:54:00,
2013-06-18 06:59:00,68.3,67.1,29.80,WSW,244,0.0,0.0,96,0.02,,---,0.02,19.00,VWS V14.01,2013-06-18 10:59:00,
2013-06-18 07:04:00,68.3,67.1,29.80,WSW,244,0.0,0.0,96,0.02,,---,0.02,19.00,VWS V14.01,2013-06-18 11:04:00,
2013-06-18 07:09:00,68.2,67.0,29.79,WSW,244,0.0,1.0,96,0.00,,---,0.02,19.00,VWS V14.01,2013-06-18 11:09:00,
2013-06-18 07:15:00,68.2,67.0,29.80,WSW,244,0.0,1.0,96,0.00,,---,0.02,19.00,VWS V14.01,2013-06-18 11:15:00,
2013-06-18 07:20:00,68.2,67.0,29.80,WSW,244,0.0,0.0,96,0.00,,---,0.02,21.00,VWS V14.01,2013-06-18 11:20:00,
2013-06-18 07:25:00,68.2,67.0,29.80,WSW,244,0.0,0.0,96,0.00,,---,0.02,19.00,VWS V14.01,2013-06-18 11:25:00,
2013-06-18 07:30:00,68.2,67.0,29.80,WSW,244,0.0,0.0,96,0.00,,---,0.02,19.00,VWS V14.01,2013-06-18 11:30:00,
2013-06-18 07:35:00,68.1,66.9,29.80,WSW,244,0.0,0.0,96,0.00,,---,0.02,19.00,VWS V14.01,2013-06-18 11:35:00,
2013-06-18 07:40:00,68.0,66.8,29.80,WSW,244,0.0,0.0,96,0.00,,---,0.02,25.00,VWS V14.01,2013-06-18 11:40:00,
2013-06-18 07:45:00,68.0,66.8,29.80,WSW,244,0.0,0.0,96,0.00,,---,0.02,19.00,VWS V14.01,2013-06-18 11:45:00,
2013-06-18 07:50:00,67.9,66.7,29.80,WSW,244,0.0,0.0,96,0.00,,---,0.02,21.00,VWS V14.01,2013-06-18 11:50:00,
2013-06-18 07:55:00,67.9,66.7,29.80,WSW,244,0.0,0.0,96,0.00,,---,0.02,16.00,VWS V14.01,2013-06-18 11:55:00,
2013-06-18 08:00:00,67.8,66.6,29.80,WSW,244,0.0,0.0,96,0.00,,---,0.02,47.00,VWS V14.01,2013-06-18 12:00:00,
2013-06-18 08:05:00,67.8,66.6,29.80,WSW,244,0.0,0.0,96,0.00,,---,0.02,58.00,VWS V14.01,2013-06-18 12:05:00,
2013-06-18 08:11:00,67.9,66.7,29.80,WSW,244,0.0,0.0,96,0.00,,---,0.02,51.00,VWS V14.01,2013-06-18 12:11:00,
2013-06-18 08:16:00,67.9,66.7,29.80,WSW,244,0.0,0.0,96,0.00,,---,0.02,39.00,VWS V14.01,2013-06-18 12:16:00,
2013-06-18 08:21:00,67.9,66.7,29.80,WSW,244,0.0,0.0,96,0.00,,---,0.02,35.00,VWS V14.01,2013-06-18 12:21:00,
2013-06-18 08:26:00,67.9,66.7,29.80,WSW,244,0.0,0.0,96,0.01,,---,0.03,40.00,VWS V14.01,2013-06-18 12:26:00,
2013-06-18 08:31:00,67.9,66.7,29.81,WSW,244,0.0,0.0,96,0.01,,---,0.03,49.00,VWS V14.01,2013-06-18 12:31:00,
2013-06-18 08:36:00,67.9,66.7,29.80,WSW,244,0.0,0.0,96,0.02,,---,0.04,49.00,VWS V14.01,2013-06-18 12:36:00,
2013-06-18 08:41:00,67.9,66.7,29.80,WSW,239,0.0,0.0,96,0.02,,---,0.04,56.00,VWS V14.01,2013-06-18 12:41:00,
2013-06-18 08:46:00,67.9,66.7,29.80,WSW,244,0.0,0.0,96,0.02,,---,0.04,65.00,VWS V14.01,2013-06-18 12:46:00,
2013-06-18 08:51:00,68.0,66.8,29.80,WSW,244,0.0,0.0,96,0.03,,---,0.05,79.00,VWS V14.01,2013-06-18 12:51:00,
2013-06-18 08:56:00,68.1,66.9,29.81,WSW,244,0.0,0.0,96,0.03,,---,0.05,88.00,VWS V14.01,2013-06-18 12:56:00,
2013-06-18 09:01:00,68.2,67.3,29.80,WSW,244,0.0,0.0,97,0.03,,---,0.05,86.00,VWS V14.01,2013-06-18 13:01:00,
2013-06-18 09:06:00,68.2,67.0,29.80,WSW,244,0.0,1.0,96,0.03,,---,0.05,77.00,VWS V14.01,2013-06-18 13:06:00,
2013-06-18 09:12:00,68.1,66.9,29.80,WSW,244,0.0,1.0,96,0.03,,---,0.05,100.00,VWS V14.01,2013-06-18 13:12:00,
2013-06-18 09:17:00,68.2,67.0,29.80,WSW,244,0.0,1.0,96,0.03,,---,0.05,114.00,VWS V14.01,2013-06-18 13:17:00,
2013-06-18 09:22:00,68.3,67.1,29.80,WSW,244,0.0,0.0,96,0.04,,---,0.06,100.00,VWS V14.01,2013-06-18 13:22:00,
2013-06-18 09:27:00,68.2,67.0,29.80,WSW,244,0.0,1.0,96,0.04,,---,0.06,102.00,VWS V14.01,2013-06-18 13:27:00,
2013-06-18 09:32:00,68.2,67.0,29.80,WSW,244,0.0,0.0,96,0.03,,---,0.06,134.00,VWS V14.01,2013-06-18 13:32:00,
2013-06-18 09:37:00,68.2,67.0,29.80,WSW,244,0.0,0.0,96,0.04,,---,0.07,149.00,VWS V14.01,2013-06-18 13:37:00,
2013-06-18 09:42:00,68.3,67.1,29.79,WSW,244,0.0,0.0,96,0.03,,---,0.07,155.00,VWS V14.01,2013-06-18 13:42:00,
2013-06-18 09:47:00,68.5,67.6,29.79,WSW,244,0.0,0.0,97,0.03,,---,0.07,163.00,VWS V14.01,2013-06-18 13:47:00,
2013-06-18 09:52:00,68.5,67.3,29.79,WSW,244,0.0,1.0,96,0.03,,---,0.07,134.00,VWS V14.01,2013-06-18 13:52:00,
2013-06-18 09:57:00,68.5,67.3,29.79,WSW,244,0.0,1.0,96,0.03,,---,0.07,88.00,VWS V14.01,2013-06-18 13:57:00,
2013-06-18 10:02:00,68.6,67.4,29.78,WSW,244,0.0,0.0,96,0.02,,---,0.07,56.00,VWS V14.01,2013-06-18 14:02:00,
2013-06-18 10:08:00,68.8,67.6,29.78,WSW,244,0.0,0.0,96,0.02,,---,0.07,28.00,VWS V14.01,2013-06-18 14:08:00,
2013-06-18 10:13:00,68.8,67.6,29.79,WSW,244,0.0,1.0,96,0.03,,---,0.08,14.00,VWS V14.01,2013-06-18 14:13:00,
2013-06-18 10:18:00,68.7,67.5,29.79,WSW,244,0.0,3.0,96,0.05,,---,0.10,114.00,VWS V14.01,2013-06-18 14:18:00,
2013-06-18 10:23:00,68.6,67.4,29.79,WSW,244,0.0,2.0,96,0.05,,---,0.10,120.00,VWS V14.01,2013-06-18 14:23:00,
2013-06-18 10:28:00,68.6,67.4,29.79,WSW,244,1.0,2.0,96,0.05,,---,0.10,81.00,VWS V14.01,2013-06-18 14:28:00,
2013-06-18 10:33:00,68.6,67.4,29.79,WSW,244,1.0,2.0,96,0.07,,---,0.13,120.00,VWS V14.01,2013-06-18 14:33:00,
2013-06-18 10:38:00,68.3,67.1,29.78,WSW,244,0.0,5.0,96,0.08,,---,0.14,163.00,VWS V14.01,2013-06-18 14:38:00,
2013-06-18 10:43:00,68.3,67.1,29.78,WSW,244,1.0,2.0,96,0.08,,---,0.15,134.00,VWS V14.01,2013-06-18 14:43:00,
2013-06-18 10:48:00,68.3,67.4,29.78,WSW,244,0.0,2.0,97,0.08,,---,0.15,148.00,VWS V14.01,2013-06-18 14:48:00,
2013-06-18 10:53:00,68.5,67.6,29.78,WSW,244,0.0,1.0,97,0.08,,---,0.15,158.00,VWS V14.01,2013-06-18 14:53:00,
2013-06-18 10:58:00,68.6,67.7,29.77,WSW,244,0.0,1.0,97,0.08,,---,0.15,118.00,VWS V14.01,2013-06-18 14:58:00,
2013-06-18 11:03:00,68.6,67.7,29.77,WSW,244,0.0,1.0,97,0.08,,---,0.15,83.00,VWS V14.01,2013-06-18 15:03:00,
2013-06-18 11:08:00,68.6,67.7,29.77,WSW,244,0.0,1.0,97,0.08,,---,0.15,113.00,VWS V14.01,2013-06-18 15:08:00,
2013-06-18 11:14:00,68.7,67.8,29.77,WSW,244,0.0,0.0,97,0.08,,---,0.15,100.00,VWS V14.01,2013-06-18 15:14:00,
2013-06-18 11:19:00,68.8,67.9,29.77,WSW,244,0.0,0.0,97,0.05,,---,0.15,200.00,VWS V14.01,2013-06-18 15:19:00,
2013-06-18 11:24:00,69.1,68.2,29.77,WSW,244,0.0,1.0,97,0.05,,---,0.15,260.00,VWS V14.01,2013-06-18 15:24:00,
2013-06-18 11:29:00,69.2,68.3,29.77,WSW,244,0.0,0.0,97,0.05,,---,0.15,204.00,VWS V14.01,2013-06-18 15:29:00,
2013-06-18 11:34:00,69.1,67.9,29.77,WSW,244,0.0,0.0,96,0.05,,---,0.15,149.00,VWS V14.01,2013-06-18 15:34:00,
2013-06-18 11:39:00,69.1,67.9,29.77,WSW,244,0.0,0.0,96,0.00,,---,0.15,155.00,VWS V14.01,2013-06-18 15:39:00,
2013-06-18 11:44:00,69.4,68.2,29.77,WSW,244,0.0,0.0,96,0.00,,---,0.15,135.00,VWS V14.01,2013-06-18 15:44:00,
2013-06-18 11:49:00,69.6,68.4,29.77,WSW,244,0.0,0.0,96,0.01,,---,0.16,72.00,VWS V14.01,2013-06-18 15:49:00,
2013-06-18 11:54:00,69.7,68.5,29.77,WSW,244,0.0,0.0,96,0.02,,---,0.17,44.00,VWS V14.01,2013-06-18 15:54:00,
2013-06-18 12:00:00,69.8,68.6,29.76,WSW,244,0.0,0.0,96,0.03,,---,0.18,65.00,VWS V14.01,2013-06-18 16:00:00,
2013-06-18 12:05:00,69.7,68.5,29.77,WSW,244,1.0,2.0,96,0.04,,---,0.19,118.00,VWS V14.01,2013-06-18 16:05:00,
2013-06-18 12:10:00,69.5,68.3,29.76,WSW,244,1.0,1.0,96,0.04,,---,0.19,218.00,VWS V14.01,2013-06-18 16:10:00,
2013-06-18 12:15:00,69.4,68.2,29.76,SW,232,0.0,6.0,96,0.04,,---,0.19,44.00,VWS V14.01,2013-06-18 16:15:00,
2013-06-18 12:20:00,69.2,68.0,29.76,SE,128,0.0,2.0,96,0.04,,---,0.19,79.00,VWS V14.01,2013-06-18 16:20:00,
2013-06-18 12:25:00,69.0,67.8,29.76,SE,128,0.0,2.0,96,0.05,,---,0.20,28.00,VWS V14.01,2013-06-18 16:25:00,
2013-06-18 12:30:00,68.8,67.3,29.76,East,101,0.0,1.0,95,0.05,,---,0.20,21.00,VWS V14.01,2013-06-18 16:30:00,
2013-06-18 12:35:00,68.6,67.1,29.76,East,101,0.0,1.0,95,0.06,,---,0.21,62.00,VWS V14.01,2013-06-18 16:35:00,
2013-06-18 12:40:00,68.6,67.4,29.76,East,101,0.0,0.0,96,0.07,,---,0.22,84.00,VWS V14.01,2013-06-18 16:40:00,
2013-06-18 12:45:00,68.6,67.4,29.76,East,101,0.0,1.0,96,0.08,,---,0.23,95.00,VWS V14.01,2013-06-18 16:45:00,
2013-06-18 12:51:00,68.8,67.6,29.76,East,101,0.0,1.0,96,0.07,,---,0.23,74.00,VWS V14.01,2013-06-18 16:51:00,
2013-06-18 12:56:00,68.9,68.0,29.76,SSW,210,1.0,2.0,97,0.09,,---,0.25,97.00,VWS V14.01,2013-06-18 16:56:00,
2013-06-18 13:01:00,68.9,68.0,29.76,SW,218,0.0,2.0,97,0.12,,---,0.30,93.00,VWS V14.01,2013-06-18 17:01:00,
2013-06-18 13:06:00,68.9,68.0,29.76,SW,218,0.0,3.0,97,0.19,,---,0.37,74.00,VWS V14.01,2013-06-18 17:06:00,
2013-06-18 13:11:00,68.6,67.4,29.76,SW,218,0.0,2.0,96,0.25,,---,0.44,32.00,VWS V14.01,2013-06-18 17:11:00,
2013-06-18 13:16:00,68.4,67.2,29.76,SSW,203,0.0,3.0,96,0.30,,---,0.49,47.00,VWS V14.01,2013-06-18 17:16:00,
2013-06-18 13:21:00,68.3,67.4,29.76,SSW,203,0.0,1.0,97,0.35,,---,0.54,46.00,VWS V14.01,2013-06-18 17:21:00,
2013-06-18 13:26:00,68.2,67.0,29.76,SSW,203,0.0,1.0,96,0.42,,---,0.61,49.00,VWS V14.01,2013-06-18 17:26:00,
2013-06-18 13:31:00,68.0,66.8,29.76,ENE,63,0.0,1.0,96,0.42,,---,0.62,95.00,VWS V14.01,2013-06-18 17:31:00,
2013-06-18 13:36:00,68.1,67.2,29.76,ENE,63,0.0,1.0,97,0.43,,---,0.63,51.00,VWS V14.01,2013-06-18 17:36:00,
2013-06-18 13:42:00,68.1,67.2,29.77,ENE,63,0.0,1.0,97,0.44,,---,0.66,42.00,VWS V14.01,2013-06-18 17:42:00,
2013-06-18 13:47:00,68.1,67.2,29.77,ENE,63,0.0,1.0,97,0.49,,---,0.71,37.00,VWS V14.01,2013-06-18 17:47:00,
2013-06-18 13:52:00,67.9,67.0,29.77,East,82,0.0,3.0,97,0.54,,---,0.77,76.00,VWS V14.01,2013-06-18 17:52:00,
2013-06-18 13:57:00,67.8,66.9,29.77,ENE,58,2.0,3.0,97,0.57,,---,0.80,53.00,VWS V14.01,2013-06-18 17:57:00,
2013-06-18 14:02:00,66.8,65.3,29.78,NE,36,4.0,10.0,95,0.56,,---,0.84,40.00,VWS V14.01,2013-06-18 18:02:00,
2013-06-18 14:07:00,65.6,64.1,29.78,NE,40,4.0,10.0,95,0.60,,---,0.88,111.00,VWS V14.01,2013-06-18 18:07:00,
2013-06-18 14:12:00,65.1,63.9,29.78,ENE,61,0.0,7.0,96,0.49,,---,0.89,163.00,VWS V14.01,2013-06-18 18:12:00,
2013-06-18 14:17:00,65.0,63.8,29.78,NE,41,1.0,7.0,96,0.49,,---,0.89,179.00,VWS V14.01,2013-06-18 18:17:00,
2013-06-18 14:22:00,65.2,64.3,29.79,NE,50,2.0,2.0,97,0.37,,---,0.90,232.00,VWS V14.01,2013-06-18 18:22:00,
2013-06-18 14:27:00,65.4,64.5,29.79,NE,38,0.0,3.0,97,0.37,,---,0.90,213.00,VWS V14.01,2013-06-18 18:27:00,
2013-06-18 14:33:00,65.6,64.7,29.79,NE,38,3.0,4.0,97,0.29,,---,0.90,209.00,VWS V14.01,2013-06-18 18:33:00,
2013-06-18 14:38:00,65.4,64.5,29.79,ENE,60,0.0,6.0,97,0.29,,---,0.90,264.00,VWS V14.01,2013-06-18 18:38:00,
2013-06-18 14:43:00,65.6,64.7,29.79,ENE,65,0.0,3.0,97,0.26,,---,0.90,316.00,VWS V14.01,2013-06-18 18:43:00,
2013-06-18 14:48:00,66.2,65.6,29.79,NE,53,0.0,3.0,98,0.27,,---,0.91,306.00,VWS V14.01,2013-06-18 18:48:00,
2013-06-18 14:53:00,66.1,65.5,29.79,ENE,61,0.0,5.0,98,0.17,,---,0.91,225.00,VWS V14.01,2013-06-18 18:53:00,
2013-06-18 14:58:00,65.8,64.9,29.79,ENE,59,1.0,5.0,97,0.17,,---,0.91,171.00,VWS V14.01,2013-06-18 18:58:00,
2013-06-18 15:03:00,65.7,64.8,29.79,NNE,33,0.0,3.0,97,0.11,,---,0.91,188.00,VWS V14.01,2013-06-18 19:03:00,
2013-06-18 15:08:00,65.6,64.7,29.79,NNE,30,0.0,4.0,97,0.11,,---,0.91,188.00,VWS V14.01,2013-06-18 19:08:00,
2013-06-18 15:13:00,65.6,64.7,29.79,NNE,30,0.0,3.0,97,0.03,,---,0.91,211.00,VWS V14.01,2013-06-18 19:13:00,
2013-06-18 15:18:00,65.6,64.7,29.79,ENE,73,0.0,3.0,97,0.03,,---,0.91,241.00,VWS V14.01,2013-06-18 19:18:00,
2013-06-18 15:23:00,65.5,64.6,29.79,NE,35,1.0,4.0,97,0.02,,---,0.91,274.00,VWS V14.01,2013-06-18 19:23:00,
2013-06-18 15:28:00,65.7,64.8,29.79,NNE,32,0.0,4.0,97,0.02,,---,0.91,258.00,VWS V14.01,2013-06-18 19:28:00,
2013-06-18 15:34:00,65.8,64.9,29.79,NE,49,0.0,4.0,97,0.01,,---,0.91,329.00,VWS V14.01,2013-06-18 19:34:00,
2013-06-18 15:39:00,66.1,65.2,29.79,NE,52,0.0,0.0,97,0.01,,---,0.91,244.00,VWS V14.01,2013-06-18 19:39:00,
2013-06-18 15:44:00,66.4,65.5,29.79,NE,51,0.0,2.0,97,0.01,,---,0.91,429.00,VWS V14.01,2013-06-18 19:44:00,
2013-06-18 15:49:00,67.1,66.5,29.79,NE,46,0.0,0.0,98,0.00,,---,0.91,339.00,VWS V14.01,2013-06-18 19:49:00,
2013-06-18 15:54:00,67.4,66.8,29.79,ENE,61,0.0,1.0,98,0.00,,---,0.91,431.00,VWS V14.01,2013-06-18 19:54:00,
2013-06-18 15:59:00,67.8,67.2,29.79,NE,42,2.0,2.0,98,0.00,,---,0.91,432.00,VWS V14.01,2013-06-18 19:59:00,
2013-06-18 16:04:00,67.5,66.3,29.80,NE,42,0.0,4.0,96,0.00,,---,0.91,436.00,VWS V14.01,2013-06-18 20:04:00,
2013-06-18 16:09:00,67.4,65.9,29.80,NE,44,0.0,0.0,95,0.00,,---,0.91,582.00,VWS V14.01,2013-06-18 20:09:00,
2013-06-18 16:14:00,67.6,65.8,29.80,NNW,334,3.0,5.0,94,0.00,,---,0.91,487.00,VWS V14.01,2013-06-18 20:14:00,
2013-06-18 16:19:00,67.9,66.1,29.80,NNE,21,0.0,1.0,94,0.00,,---,0.91,357.00,VWS V14.01,2013-06-18 20:19:00,
2013-06-18 16:24:00,67.9,65.2,29.80,NE,42,0.0,3.0,91,0.00,,---,0.91,269.00,VWS V14.01,2013-06-18 20:24:00,
2013-06-18 16:30:00,68.0,65.6,29.80,ENE,60,1.0,2.0,92,0.00,,---,0.91,206.00,VWS V14.01,2013-06-18 20:30:00,
2013-06-18 16:35:00,67.8,65.1,29.80,ENE,59,0.0,4.0,91,0.00,,---,0.91,160.00,VWS V14.01,2013-06-18 20:35:00,
2013-06-18 16:40:00,67.6,64.9,29.81,NNE,33,0.0,0.0,91,0.00,,---,0.91,172.00,VWS V14.01,2013-06-18 20:40:00,
2013-06-18 16:45:00,67.6,65.2,29.81,NE,41,0.0,3.0,92,0.00,,---,0.91,142.00,VWS V14.01,2013-06-18 20:45:00,
2013-06-18 16:50:00,67.6,64.9,29.80,NE,41,0.0,1.0,91,0.00,,---,0.91,193.00,VWS V14.01,2013-06-18 20:50:00,
2013-06-18 16:55:00,67.5,64.8,29.80,NE,41,0.0,1.0,91,0.00,,---,0.91,123.00,VWS V14.01,2013-06-18 20:55:00,
2013-06-18 17:00:00,67.7,65.3,29.81,NE,41,0.0,1.0,92,0.00,,---,0.91,128.00,VWS V14.01,2013-06-18 21:00:00,
2013-06-18 17:05:00,67.8,65.4,29.81,NE,44,0.0,2.0,92,0.00,,---,0.91,128.00,VWS V14.01,2013-06-18 21:05:00,
2013-06-18 17:11:00,67.7,64.7,29.81,NNE,17,0.0,2.0,90,0.00,,---,0.91,141.00,VWS V14.01,2013-06-18 21:11:00,
2013-06-18 17:16:00,67.6,64.6,29.80,East,80,0.0,2.0,90,0.00,,---,0.91,114.00,VWS V14.01,2013-06-18 21:16:00,
2013-06-18 17:21:00,67.6,65.2,29.80,ENE,76,0.0,0.0,92,0.00,,---,0.91,120.00,VWS V14.01,2013-06-18 21:21:00,
2013-06-18 17:26:00,67.6,64.9,29.80,North,350,0.0,3.0,91,0.00,,---,0.91,142.00,VWS V14.01,2013-06-18 21:26:00,
2013-06-18 17:31:00,67.6,64.9,29.81,North,355,0.0,1.0,91,0.00,,---,0.91,236.00,VWS V14.01,2013-06-18 21:31:00,
2013-06-18 17:36:00,68.0,65.9,29.80,North,360,0.0,2.0,93,0.00,,---,0.91,501.00,VWS V14.01,2013-06-18 21:36:00,
2013-06-18 17:41:00,69.0,67.2,29.80,North,360,0.0,1.0,94,0.00,,---,0.91,439.00,VWS V14.01,2013-06-18 21:41:00,
2013-06-18 17:47:00,69.6,65.9,29.79,North,360,0.0,2.0,88,0.00,,---,0.91,239.00,VWS V14.01,2013-06-18 21:47:00,
2013-06-18 17:52:00,69.8,65.4,29.80,NNE,15,0.0,4.0,86,0.00,,---,0.91,309.00,VWS V14.01,2013-06-18 21:52:00,
2013-06-18 17:57:00,70.2,66.8,29.80,NE,50,3.0,4.0,89,0.00,,---,0.91,846.00,VWS V14.01,2013-06-18 21:57:00,
2013-06-18 18:02:00,70.7,67.0,29.79,NE,40,1.0,4.0,88,0.00,,---,0.91,339.00,VWS V14.01,2013-06-18 22:02:00,
2013-06-18 18:07:00,70.8,66.1,29.79,NE,40,0.0,4.0,85,0.00,,---,0.91,163.00,VWS V14.01,2013-06-18 22:07:00,
2013-06-18 18:12:00,70.9,66.5,29.79,NE,40,0.0,1.0,86,0.00,,---,0.91,181.00,VWS V14.01,2013-06-18 22:12:00,
2013-06-18 18:17:00,71.1,67.4,29.79,NE,40,0.0,2.0,88,0.00,,---,0.91,271.00,VWS V14.01,2013-06-18 22:17:00,
2013-06-18 18:22:00,71.4,67.3,29.79,NE,40,0.0,1.0,87,0.00,,---,0.91,427.00,VWS V14.01,2013-06-18 22:22:00,
2013-06-18 18:27:00,71.6,66.9,29.79,NE,40,0.0,1.0,85,0.00,,---,0.91,181.00,VWS V14.01,2013-06-18 22:27:00,
2013-06-18 18:32:00,71.4,65.6,29.79,NE,40,0.0,1.0,82,0.00,,---,0.91,53.00,VWS V14.01,2013-06-18 22:32:00,
2013-06-18 18:38:00,71.1,65.7,29.80,NE,40,0.0,1.0,83,0.00,,---,0.91,67.00,VWS V14.01,2013-06-18 22:38:00,
2013-06-18 18:43:00,70.7,66.0,29.79,NE,40,0.0,1.0,85,0.00,,---,0.91,148.00,VWS V14.01,2013-06-18 22:43:00,
2013-06-18 18:48:00,70.4,65.7,29.79,NE,40,0.0,1.0,85,0.00,,---,0.91,197.00,VWS V14.01,2013-06-18 22:48:00,
2013-06-18 18:53:00,70.2,65.5,29.79,NE,40,0.0,0.0,85,0.00,,---,0.91,181.00,VWS V14.01,2013-06-18 22:53:00,
2013-06-18 18:58:00,70.4,65.7,29.79,NE,40,0.0,0.0,85,0.00,,---,0.91,107.00,VWS V14.01,2013-06-18 22:58:00,
2013-06-18 19:03:00,70.6,65.2,29.79,NE,40,0.0,1.0,83,0.00,,---,0.91,306.00,VWS V14.01,2013-06-18 23:03:00,
2013-06-18 19:08:00,70.8,65.7,29.79,NE,40,0.0,1.0,84,0.00,,---,0.91,91.00,VWS V14.01,2013-06-18 23:08:00,
2013-06-18 19:13:00,70.8,65.7,29.79,NE,40,0.0,0.0,84,0.00,,---,0.91,100.00,VWS V14.01,2013-06-18 23:13:00,
2013-06-18 19:18:00,70.6,65.2,29.79,NE,40,0.0,0.0,83,0.00,,---,0.91,97.00,VWS V14.01,2013-06-18 23:18:00,
2013-06-18 19:23:00,70.4,65.0,29.79,NE,40,0.0,0.0,83,0.00,,---,0.91,153.00,VWS V14.01,2013-06-18 23:23:00,
2013-06-18 19:29:00,70.4,65.3,29.79,NE,40,0.0,0.0,84,0.00,,---,0.91,155.00,VWS V14.01,2013-06-18 23:29:00,
2013-06-18 19:34:00,70.4,64.7,29.80,NE,40,0.0,1.0,82,0.00,,---,0.91,237.00,VWS V14.01,2013-06-18 23:34:00,
2013-06-18 19:39:00,70.7,64.6,29.80,NE,38,0.0,0.0,81,0.00,,---,0.91,153.00,VWS V14.01,2013-06-18 23:39:00,
2013-06-18 19:44:00,70.9,65.5,29.80,NE,38,0.0,0.0,83,0.00,,---,0.91,130.00,VWS V14.01,2013-06-18 23:44:00,
2013-06-18 19:49:00,71.2,66.1,29.80,NE,38,0.0,0.0,84,0.00,,---,0.91,185.00,VWS V14.01,2013-06-18 23:49:00,
2013-06-18 19:54:00,71.6,65.8,29.80,NE,38,0.0,0.0,82,0.00,,---,0.91,160.00,VWS V14.01,2013-06-18 23:54:00,
2013-06-18 19:59:00,71.8,65.7,29.80,NE,40,0.0,0.0,81,0.00,,---,0.91,72.00,VWS V14.01,2013-06-18 23:59:00,
2013-06-18 20:04:00,71.9,65.4,29.80,NE,40,0.0,0.0,80,0.00,,---,0.91,79.00,VWS V14.01,2013-06-19 00:04:00,
2013-06-18 20:09:00,71.8,66.4,29.81,NE,40,0.0,0.0,83,0.00,,---,0.91,76.00,VWS V14.01,2013-06-19 00:09:00,
2013-06-18 20:14:00,71.3,66.6,29.81,NE,40,0.0,0.0,85,0.00,,---,0.91,63.00,VWS V14.01,2013-06-19 00:14:00,
2013-06-18 20:20:00,70.9,65.8,29.81,NE,40,0.0,0.0,84,0.00,,---,0.91,53.00,VWS V14.01,2013-06-19 00:20:00,
2013-06-18 20:25:00,70.2,65.5,29.81,NE,40,0.0,0.0,85,0.00,,---,0.91,44.00,VWS V14.01,2013-06-19 00:25:00,
2013-06-18 20:30:00,69.6,65.6,29.81,NE,40,0.0,0.0,87,0.00,,---,0.91,35.00,VWS V14.01,2013-06-19 00:30:00,
2013-06-18 20:35:00,69.0,65.0,29.81,NE,40,0.0,0.0,87,0.00,,---,0.91,26.00,VWS V14.01,2013-06-19 00:35:00,
2013-06-18 20:40:00,68.6,64.6,29.82,NE,40,0.0,0.0,87,0.00,,---,0.91,16.00,VWS V14.01,2013-06-19 00:40:00,
2013-06-18 20:45:00,68.2,64.5,29.82,NE,40,0.0,0.0,88,0.00,,---,0.91,11.00,VWS V14.01,2013-06-19 00:45:00,
2013-06-18 20:50:00,67.9,64.2,29.82,NE,40,0.0,0.0,88,0.00,,---,0.91,5.00,VWS V14.01,2013-06-19 00:50:00,
2013-06-18 20:55:00,67.5,64.2,29.82,NE,40,0.0,0.0,89,0.00,,---,0.91,0.00,VWS V14.01,2013-06-19 00:55:00,
2013-06-18 21:00:00,67.2,63.8,29.82,NE,40,0.0,0.0,89,0.00,,---,0.91,0.00,VWS V14.01,2013-06-19 01:00:00,
2013-06-18 21:05:00,66.7,63.7,29.82,NE,40,0.0,0.0,90,0.00,,---,0.91,0.00,VWS V14.01,2013-06-19 01:05:00,
2013-06-18 21:10:00,66.4,63.4,29.83,NE,40,0.0,0.0,90,0.00,,---,0.91,0.00,VWS V14.01,2013-06-19 01:10:00,
2013-06-18 21:16:00,66.2,63.5,29.83,NE,40,0.0,0.0,91,0.00,,---,0.91,0.00,VWS V14.01,2013-06-19 01:16:00,
2013-06-18 21:21:00,65.9,63.2,29.83,NE,40,0.0,0.0,91,0.00,,---,0.91,0.00,VWS V14.01,2013-06-19 01:21:00,
2013-06-18 21:26:00,65.7,63.3,29.83,NE,40,0.0,0.0,92,0.00,,---,0.91,0.00,VWS V14.01,2013-06-19 01:26:00,
2013-06-18 21:31:00,65.5,63.1,29.83,NE,40,0.0,0.0,92,0.00,,---,0.91,0.00,VWS V14.01,2013-06-19 01:31:00,
2013-06-18 21:36:00,65.3,62.9,29.84,NE,40,0.0,0.0,92,0.00,,---,0.91,0.00,VWS V14.01,2013-06-19 01:36:00,
2013-06-18 21:41:00,65.0,62.6,29.84,NE,40,0.0,0.0,92,0.00,,---,0.91,0.00,VWS V14.01,2013-06-19 01:41:00,
2013-06-18 21:46:00,64.9,62.8,29.85,NE,40,0.0,0.0,93,0.00,,---,0.91,0.00,VWS V14.01,2013-06-19 01:46:00,
2013-06-18 21:51:00,64.8,62.7,29.85,NE,40,0.0,0.0,93,0.00,,---,0.91,0.00,VWS V14.01,2013-06-19 01:51:00,
2013-06-18 21:56:00,64.7,62.9,29.86,NE,40,0.0,0.0,94,0.00,,---,0.91,0.00,VWS V14.01,2013-06-19 01:56:00,
2013-06-18 22:01:00,64.6,62.8,29.86,NE,40,0.0,0.0,94,0.00,,---,0.91,0.00,VWS V14.01,2013-06-19 02:01:00,
2013-06-18 22:07:00,64.6,63.1,29.86,NE,40,0.0,0.0,95,0.00,,---,0.91,0.00,VWS V14.01,2013-06-19 02:07:00,
2013-06-18 22:12:00,64.6,63.1,29.86,NE,40,0.0,0.0,95,0.00,,---,0.91,0.00,VWS V14.01,2013-06-19 02:12:00,
2013-06-18 22:17:00,64.6,63.1,29.86,NE,40,0.0,0.0,95,0.00,,---,0.91,0.00,VWS V14.01,2013-06-19 02:17:00,
2013-06-18 22:22:00,64.6,63.1,29.86,NE,40,0.0,0.0,95,0.00,,---,0.91,0.00,VWS V14.01,2013-06-19 02:22:00,
2013-06-18 22:27:00,64.7,63.2,29.87,NE,40,0.0,0.0,95,0.00,,---,0.91,0.00,VWS V14.01,2013-06-19 02:27:00,
2013-06-18 22:32:00,64.7,63.2,29.87,NE,40,0.0,0.0,95,0.00,,---,0.91,0.00,VWS V14.01,2013-06-19 02:32:00,
2013-06-18 22:37:00,64.8,63.3,29.87,NE,40,0.0,0.0,95,0.00,,---,0.91,0.00,VWS V14.01,2013-06-19 02:37:00,
2013-06-18 22:42:00,64.9,63.7,29.88,NE,40,0.0,0.0,96,0.00,,---,0.91,0.00,VWS V14.01,2013-06-19 02:42:00,
2013-06-18 22:47:00,64.9,63.7,29.87,NE,40,0.0,0.0,96,0.00,,---,0.91,0.00,VWS V14.01,2013-06-19 02:47:00,
2013-06-18 22:52:00,65.0,63.8,29.87,NE,40,0.0,0.0,96,0.00,,---,0.91,0.00,VWS V14.01,2013-06-19 02:52:00,
2013-06-18 22:57:00,65.0,63.8,29.88,NE,40,0.0,0.0,96,0.00,,---,0.91,0.00,VWS V14.01,2013-06-19 02:57:00,
2013-06-18 23:03:00,65.1,63.9,29.87,NE,40,0.0,0.0,96,0.00,,---,0.91,0.00,VWS V14.01,2013-06-19 03:03:00,
2013-06-18 23:08:00,65.1,63.9,29.88,NE,40,0.0,0.0,96,0.00,,---,0.91,0.00,VWS V14.01,2013-06-19 03:08:00,
2013-06-18 23:13:00,65.1,63.9,29.88,NE,40,0.0,0.0,96,0.00,,---,0.91,0.00,VWS V14.01,2013-06-19 03:13:00,
2013-06-18 23:18:00,64.9,63.4,29.88,NE,40,0.0,0.0,95,0.00,,---,0.91,0.00,VWS V14.01,2013-06-19 03:18:00,
2013-06-18 23:23:00,64.8,63.3,29.89,NE,40,0.0,0.0,95,0.00,,---,0.91,0.00,VWS V14.01,2013-06-19 03:23:00,
2013-06-18 23:28:00,64.7,63.2,29.89,NE,40,0.0,0.0,95,0.00,,---,0.91,0.00,VWS V14.01,2013-06-19 03:28:00,
2013-06-18 23:33:00,64.6,63.1,29.89,NE,40,0.0,0.0,95,0.00,,---,0.91,0.00,VWS V14.01,2013-06-19 03:33:00,
2013-06-18 23:38:00,64.4,62.9,29.88,NE,40,0.0,0.0,95,0.00,,---,0.91,0.00,VWS V14.01,2013-06-19 03:38:00,
2013-06-18 23:43:00,64.2,62.7,29.89,NE,40,0.0,0.0,95,0.00,,---,0.91,0.00,VWS V14.01,2013-06-19 03:43:00,
2013-06-18 23:48:00,64.1,62.6,29.89,NE,40,0.0,0.0,95,0.00,,---,0.91,0.00,VWS V14.01,2013-06-19 03:48:00,
2013-06-18 23:54:00,63.8,62.3,29.89,NE,40,0.0,0.0,95,0.00,,---,0.91,0.00,VWS V14.01,2013-06-19 03:54:00,
2013-06-18 23:59:00,63.6,62.2,29.89,NE,40,0.0,0.0,95,0.00,,---,0.91,0.00,VWS V14.01,2013-06-19 03:59:00,